Weather Roundup
Issued by NWS Chicago, IL

Home | Current Version | Previous Version | Graphics & Text | Print | Product List | Glossary On
Versions: 1 2 3 4 5 6 7 8 9 10 11 12 13 14 15 16 17 18 19 20 21 22 23 24 25 26 27 28 29 30 31 32 33 34 35 36 37 38 39 40 41 42 43 44 45 46 47 48 49 50
000
NZUS59 KLOT 301600
HRRLOT

CHICAGO AREA WEATHER ROUNDUP
NATIONAL WEATHER SERVICE CHICAGO/ROMEOVILLE IL
1000 AM CST FRI JAN 30 2015

NOTE: "FAIR" INDICATES FEW OR NO CLOUDS BELOW 12,000 FEET WITH NO
SIGNIFICANT WEATHER AND/OR OBSTRUCTIONS TO VISIBILITY.

* THESE STATIONS ARE NOT UNDER NWS QUALITY CONTROL. THEY ALSO MAY NOT
  REPORT WEATHER SUCH AS PRECIPITATION OR FOG.

ILZ005-006-012>014-019>023-301700-
NORTHEAST ILLINOIS

CITY           SKY/WX    TMP DP  RH WIND       PRES   REMARKS
OHARE          PTSUNNY   23   7  50 N8        30.52R WCI  14
MIDWAY         PTSUNNY   27   9  46 NW9       30.52R WCI  18
AURORA         MOSUNNY   25   9  50 NE9       30.53R WCI  15
WAUKEGAN       SUNNY     23   8  52 NW7       30.51R WCI  15
DUPAGE AIRPORT MIX PCPN  24   9  52 N9        30.51R WCI  14
WHEELING       SUNNY     24   7  48 NW8       30.53R WCI  15
NORTHERLY IS     N/A     25  12  58 MISG        N/A
$$

WIZ051-052-058>065-066-070>072-301700-
SOUTHEAST WISCONSIN

CITY           SKY/WX    TMP DP  RH WIND       PRES   REMARKS
MILWAUKEE      MOSUNNY   22   6  50 N6        30.52R WCI  14
KENOSHA*       MOSUNNY   23   8  52 N6        30.52R WCI  16
RACINE*        SUNNY     23   8  52 NW8       30.53R WCI  14
WAUKESHA       SUNNY     19   7  58 NW6       30.51S WCI  11
$$

INZ001>003-010>013-019-020-301700-
NORTHWEST INDIANA

CITY           SKY/WX    TMP DP  RH WIND       PRES   REMARKS
GARY*          PTSUNNY   28  10  47 N12G23    30.52R WCI  18
MICHIGAN CITY* NOT AVBL
RENSSELAER*    NOT AVBL
VALPARAISO     CLOUDY    26  14  60 N9        30.50R WCI  17
$$

LMZ740>746-301700-
SOUTHERN LAKE MICHIGAN

STATION/POSITION TIME  SKY/WX   TEMP WIND        PRES    VSBY
                                AIR  DIR/SP/G
                 (UTC)          (F)  (DEG/KT/KT) (MB)    (MI)
HARRISON CRIB    1500            22  320/ 12/ 15   N/A
BURNHAM HARBOR   1600            26  350/ 10/ 12   N/A
CALUMET HARBOR   1500            25  340/  9/ 11   N/A
BURNS HARBOR     NOT AVBL
MICHIGAN CITY    1500            25  340/ 17/ 20   N/A
$$

ABBREVIATIONS USED IN REMARKS
   TC - TEMPERATURE IN CELSIUS
  WCI - WIND CHILL INDEX
   HX - HEAT INDEX
  VSB - VISIBILITY
$$



USA.gov is the U.S. government's official web portal to all federal, state and local government web resources and services.